Flag for Iceland

Past Weather in Reykjavik, Iceland — Yesterday and Last 2 Weeks

Now
50 °F

Overcast.


Feels Like: 47 °F
Forecast: 54 / 50 °F
Wind: 8 mph from East

Location: Reykjavik Airport

Current Time: Jul 11, 2020 at 5:48:41 am

Latest Report: Jul 11, 2020 at 5:00 am


Visibility: N/A

Pressure: 29.86 "Hg

Humidity: 82%

Dew Point: 45 °F

Location of ReykjavikLocation

Past Weather in Reykjavik — Graph

°F

Reykjavik Temperature Yesterday

Maximum temperature yesterday: 52 °F (at 12:00 am)
Minimum temperature yesterday: 50 °F (at 2:00 am)
Average temperature yesterday: 51 °F

High & Low Weather Summary for the Past Weeks

 TemperatureHumidityPressure
High66 °F (Jun 29, 1:00 pm)100% (Jun 27, 3:00 am)30.04 "Hg (Jun 27, 3:00 am)
Low45 °F (Jul 6, 5:00 am)39% (Jul 6, 4:00 pm)29.47 "Hg (Jul 4, 2:00 pm)
Average53 °F73%29.82 "Hg
* Reported Jun 26 4:00 am — Jul 11 4:00 am, Reykjavik. Weather by CustomWeather, © 2020

Note: Actual official high and low records may vary slightly from our data, if they occured in-between our weather recording intervals... More about our weather records

Reykjavik Weather History for the Previous 24 Hours

Scroll right to see more
 ConditionsComfort  
Time TempWeatherWind HumidityBarometerVisibility
4:00 am
Sat, Jul 11
50 °FOvercast.8 mph82%29.86 "HgN/A
3:00 am50 °FMostly cloudy.10 mph82%29.86 "HgN/A
2:00 am50 °FMostly cloudy.7 mph76%29.86 "HgN/A
1:00 am50 °FMostly cloudy.6 mph76%29.89 "HgN/A
12:00 am50 °FDrizzle. Mostly cloudy.5 mph76%29.89 "HgN/A
11:00 pm
Fri, Jul 10
50 °FScattered showers. Mostly cloudy.5 mph71%29.92 "HgN/A
10:00 pm52 °FCloudy.6 mph67%29.92 "HgN/A
9:00 pm50 °FCloudy.No wind71%29.95 "HgN/A
8:00 pm52 °FPartly sunny.3 mph67%29.95 "HgN/A
7:00 pm52 °FPartly sunny.3 mph67%29.95 "HgN/A
6:00 pm52 °FOvercast.6 mph67%29.98 "HgN/A
5:00 pm52 °FOvercast.8 mph72%29.98 "HgN/A
4:00 pm52 °FOvercast.10 mph72%30.01 "HgN/A
3:00 pm52 °FOvercast.10 mph72%30.01 "HgN/A
2:00 pm52 °FOvercast.6 mph72%30.01 "HgN/A
1:00 pm50 °FOvercast.5 mph76%30.04 "HgN/A
12:00 pm52 °FOvercast.3 mph67%30.04 "HgN/A
11:00 am52 °FOvercast.8 mph62%30.04 "HgN/A
10:00 am52 °FOvercast.10 mph62%30.04 "HgN/A
9:00 am52 °FPartly sunny.8 mph67%30.04 "HgN/A
8:00 am50 °FScattered showers. Overcast.12 mph71%30.04 "HgN/A
7:00 am50 °FPartly sunny.14 mph76%30.04 "HgN/A
6:00 am50 °FPartly sunny.13 mph71%30.04 "HgN/A
5:00 am50 °FCloudy.14 mph76%30.04 "HgN/A
Weather by CustomWeather, © 2020

See weather overview